Terminal Aerodrome Forecast
Issued by NWS

Home | Current Version | Previous Version | Text Only | Print | Product List | Glossary On
Versions: 1 2 3 4 5 6 7 8 9 10 11 12 13 14 15 16 17 18 19 20 21
000
FTUS46 KMTR 260545
TAFOAK
TAF
KOAK 260545Z 2606/2712 27010KT P6SM OVC015
     FM261900 25008KT P6SM SCT020
     FM262100 27014KT P6SM SCT030
     FM270300 29010KT P6SM SCT020
     FM270600 29010KT P6SM BKN020=

USA.gov is the U.S. government's official web portal to all federal, state and local government web resources and services.